• In Hungary
  • List of Countries
  • For 7 days
  • Water Temperature
  • Satellite Maps
  • Weather Map
  • News
  • Weather Widgets
  • user-avatar
    Login

    Hourly Weather Providence

    Today, 26 September, Wednesday

    Time Temperature Precipitation Wind Pressure Humidity
    00:00 +22°C° 0.4 mm 5 mps 764 mmHg 96%
    01:00 +22°C° 0 mm 4 mps 764 mmHg 96%
    02:00 +22°C° 0.6 mm 4 mps 763 mmHg 97%
    03:00 +22°C° 0.6 mm 4 mps 763 mmHg 97%
    04:00 +22°C° 0.6 mm 4 mps 762 mmHg 97%
    05:00 +22°C° 0.1 mm 4 mps 762 mmHg 97%
    06:00 +22°C° 0.1 mm 4 mps 762 mmHg 97%
    07:00 +23°C° 0.1 mm 4 mps 762 mmHg 96%
    08:00 +25°C° 0.1 mm 4 mps 761 mmHg 90%
    09:00 +26°C° 0.1 mm 5 mps 761 mmHg 84%
    10:00 +28°C° 0.1 mm 5 mps 761 mmHg 77%
    11:00 +28°C° 0 mm 6 mps 760 mmHg 74%
    12:00 +29°C° 0 mm 6 mps 760 mmHg 70%
    13:00 +30°C° 0 mm 6 mps 759 mmHg 66%
    14:00 +29°C° 0 mm 6 mps 759 mmHg 70%
    15:00 +28°C° 0 mm 6 mps 758 mmHg 73%
    16:00 +27°C° 0 mm 6 mps 758 mmHg 77%
    17:00 +26°C° 0.4 mm 5 mps 758 mmHg 83%
    18:00 +25°C° 0.4 mm 5 mps 758 mmHg 88%
    19:00 +23°C° 0.4 mm 4 mps 758 mmHg 94%
    20:00 +23°C° 1.2 mm 4 mps 758 mmHg 95%
    21:00 +24°C° 1.2 mm 3 mps 758 mmHg 96%
    22:00 +22°C° 1.2 mm 3 mps 758 mmHg 97%
    23:00 +22°C° 0.1 mm 3 mps 759 mmHg 96%

    Tomorrow, 27 September, Thursday

    Time Temperature Precipitation Wind Pressure Humidity
    00:00 +21°C° 0.1 mm 3 mps 759 mmHg 95%
    01:00 +20°C° 0.1 mm 3 mps 759 mmHg 94%
    02:00 +19°C° 0 mm 3 mps 760 mmHg 92%
    03:00 +18°C° 0 mm 3 mps 760 mmHg 91%
    04:00 +17°C° 0 mm 3 mps 760 mmHg 89%
    05:00 +17°C° 0 mm 3 mps 761 mmHg 85%
    06:00 +16°C° 0 mm 3 mps 762 mmHg 82%
    07:00 +16°C° 0 mm 3 mps 763 mmHg 79%
    08:00 +17°C° 0 mm 3 mps 763 mmHg 72%
    09:00 +19°C° 0 mm 3 mps 764 mmHg 65%
    10:00 +20°C° 0 mm 3 mps 764 mmHg 58%
    11:00 +21°C° 0 mm 3 mps 764 mmHg 57%
    12:00 +21°C° 0 mm 3 mps 764 mmHg 56%
    13:00 +22°C° 0 mm 3 mps 764 mmHg 56%
    14:00 +21°C° 0 mm 3 mps 764 mmHg 58%
    15:00 +20°C° 0 mm 3 mps 764 mmHg 59%
    16:00 +20°C° 0 mm 3 mps 763 mmHg 61%
    17:00 +18°C° 0 mm 3 mps 764 mmHg 64%
    18:00 +17°C° 0 mm 3 mps 764 mmHg 67%
    19:00 +16°C° 0 mm 2 mps 764 mmHg 70%
    20:00 +16°C° 0 mm 2 mps 764 mmHg 70%
    21:00 +16°C° 0 mm 2 mps 764 mmHg 70%
    22:00 +16°C° 0 mm 2 mps 764 mmHg 70%
    23:00 +16°C° 0.2 mm 2 mps 764 mmHg 75%

    Day after tomorrow, 28 September, Friday

    Time Temperature Precipitation Wind Pressure Humidity
    00:00 +15°C° 0.2 mm 2 mps 764 mmHg 79%
    01:00 +15°C° 0.2 mm 2 mps 764 mmHg 83%
    02:00 +15°C° 0.2 mm 2 mps 764 mmHg 85%
    03:00 +14°C° 0.2 mm 3 mps 764 mmHg 87%
    04:00 +14°C° 0.2 mm 3 mps 763 mmHg 89%
    05:00 +14°C° 0.1 mm 3 mps 764 mmHg 90%
    06:00 +15°C° 0.1 mm 2 mps 764 mmHg 91%
    07:00 +15°C° 0.1 mm 2 mps 764 mmHg 92%
    08:00 +16°C° 0.1 mm 2 mps 764 mmHg 90%
    09:00 +16°C° 0.1 mm 2 mps 764 mmHg 88%
    10:00 +17°C° 0.1 mm 2 mps 764 mmHg 87%
    11:00 +18°C° 0 mm 2 mps 764 mmHg 82%
    12:00 +19°C° 0 mm 2 mps 764 mmHg 78%
    13:00 +21°C° 0 mm 1 mps 763 mmHg 74%
    14:00 +21°C° 0 mm 1 mps 763 mmHg 76%
    15:00 +21°C° 0 mm 1 mps 763 mmHg 78%
    16:00 +20°C° 0 mm 1 mps 762 mmHg 80%
    17:00 +20°C° 0 mm 1 mps 763 mmHg 84%
    18:00 +19°C° 0 mm 1 mps 763 mmHg 89%
    19:00 +18°C° 0 mm 1 mps 763 mmHg 93%
    20:00 +18°C° 0 mm 1 mps 763 mmHg 94%
    21:00 +18°C° 0 mm 1 mps 763 mmHg 94%
    22:00 +16°C° 0 mm 1 mps 762 mmHg 95%
    23:00 +18°C° 0 mm 1 mps 762 mmHg 95%

    29 September, Saturday

    Time Temperature Precipitation Wind Pressure Humidity
    00:00 +18°C° 0 mm 1 mps 762 mmHg 95%
    01:00 +18°C° 0 mm 1 mps 762 mmHg 96%
    02:00 +18°C° 0 mm 1 mps 761 mmHg 96%
    03:00 +18°C° 0 mm 1 mps 761 mmHg 96%
    04:00 +17°C° 0 mm 2 mps 761 mmHg 96%
    05:00 +17°C° 0 mm 2 mps 761 mmHg 95%
    06:00 +17°C° 0 mm 3 mps 761 mmHg 93%
    07:00 +17°C° 0 mm 3 mps 762 mmHg 92%
    08:00 +19°C° 0 mm 3 mps 762 mmHg 81%
    09:00 +20°C° 0 mm 4 mps 762 mmHg 71%
    10:00 +22°C° 0 mm 4 mps 762 mmHg 61%
    11:00 +22°C° 0 mm 4 mps 762 mmHg 55%
    12:00 +23°C° 0 mm 4 mps 762 mmHg 49%
    13:00 +23°C° 0 mm 4 mps 762 mmHg 42%
    14:00 +23°C° 0 mm 4 mps 762 mmHg 42%
    15:00 +22°C° 0 mm 4 mps 763 mmHg 42%
    16:00 +21°C° 0 mm 3 mps 763 mmHg 41%
    17:00 +19°C° 0 mm 3 mps 764 mmHg 46%
    18:00 +17°C° 0 mm 3 mps 765 mmHg 51%
    19:00 +15°C° 0 mm 2 mps 765 mmHg 56%
    20:00 +14°C° 0 mm 2 mps 766 mmHg 58%
    21:00 +13°C° 0 mm 2 mps 766 mmHg 60%
    22:00 +13°C° 0 mm 2 mps 767 mmHg 61%
    23:00 +12°C° 0 mm 2 mps 767 mmHg 61%

    30 September, Sunday

    Time Temperature Precipitation Wind Pressure Humidity
    00:00 +12°C° 0 mm 2 mps 767 mmHg 61%
    01:00 +10°C° 0 mm 2 mps 767 mmHg 61%
    02:00 +10°C° 0 mm 2 mps 768 mmHg 62%
    03:00 +9°C° 0 mm 2 mps 768 mmHg 63%
    04:00 +9°C° 0 mm 2 mps 768 mmHg 64%
    05:00 +10°C° 0 mm 2 mps 769 mmHg 64%
    06:00 +11°C° 0 mm 1 mps 769 mmHg 63%
    07:00 +12°C° 0 mm 1 mps 769 mmHg 63%
    08:00 +14°C° 0 mm 1 mps 769 mmHg 57%
    09:00 +18°C° 0 mm 1 mps 770 mmHg 51%
    10:00 +21°C° 0 mm 1 mps 770 mmHg 45%
    11:00 +21°C° 0 mm 1 mps 769 mmHg 43%
    12:00 +20°C° 0 mm 2 mps 769 mmHg 41%
    13:00 +20°C° 0 mm 2 mps 769 mmHg 39%
    14:00 +20°C° 0 mm 2 mps 768 mmHg 42%
    15:00 +20°C° 0 mm 2 mps 768 mmHg 45%
    16:00 +19°C° 0 mm 3 mps 768 mmHg 49%
    17:00 +17°C° 0 mm 3 mps 768 mmHg 55%
    18:00 +16°C° 0 mm 2 mps 769 mmHg 62%
    19:00 +14°C° 0 mm 2 mps 769 mmHg 68%
    20:00 +14°C° 0 mm 2 mps 769 mmHg 70%
    21:00 +14°C° 0 mm 2 mps 769 mmHg 71%
    22:00 +14°C° 0 mm 2 mps 769 mmHg 73%
    23:00 +14°C° 0 mm 2 mps 768 mmHg 75%

    1 October, Monday

    Time Temperature Precipitation Wind Pressure Humidity
    00:00 +14°C° 0 mm 2 mps 768 mmHg 76%
    01:00 +14°C° 0 mm 2 mps 768 mmHg 78%
    02:00 +14°C° 0 mm 2 mps 768 mmHg 80%
    03:00 +15°C° 0 mm 2 mps 768 mmHg 83%
    04:00 +15°C° 0 mm 2 mps 768 mmHg 85%
    05:00 +15°C° 0 mm 2 mps 768 mmHg 84%
    06:00 +16°C° 0 mm 2 mps 768 mmHg 84%
    07:00 +17°C° 0 mm 2 mps 768 mmHg 83%
    08:00 +17°C° 0.7 mm 2 mps 768 mmHg 86%
    09:00 +16°C° 0.7 mm 2 mps 768 mmHg 89%
    10:00 +16°C° 0.7 mm 2 mps 768 mmHg 93%
    11:00 +16°C° 0.5 mm 2 mps 768 mmHg 91%
    12:00 +17°C° 0.5 mm 2 mps 768 mmHg 89%
    13:00 +17°C° 0.5 mm 2 mps 768 mmHg 87%
    14:00 +17°C° 0.1 mm 2 mps 768 mmHg 85%
    15:00 +17°C° 0.1 mm 2 mps 768 mmHg 82%
    16:00 +18°C° 0.1 mm 2 mps 768 mmHg 80%
    17:00 +16°C° 0 mm 2 mps 769 mmHg 79%
    18:00 +15°C° 0 mm 2 mps 769 mmHg 79%
    19:00 +14°C° 0 mm 2 mps 770 mmHg 79%
    20:00 +14°C° 0 mm 2 mps 770 mmHg 79%
    21:00 +13°C° 0 mm 2 mps 771 mmHg 78%
    22:00 +12°C° 0 mm 2 mps 771 mmHg 78%
    23:00 +12°C° 0 mm 2 mps 771 mmHg 78%
    Show more